Tracking 23611 objects as of 18-Sep-2021
HD Live streaming from Space Station
objects crossing your sky now
Track INSPIRATION-4

EKRAN 1

Track EKRAN 1 now!
EKRAN 1 is classified as:


NORAD ID: 9503
Int'l Code: 1976-107A
Perigee: 35,509.2 km
Apogee: 36,080.4 km
Inclination: 8.0 °
Period: 1,436.2 minutes
Semi major axis: 42165 km
RCS: 3.5481 m2 (large)
Launch date: October 26, 1976
Source: Commonwealth of Independent States (former USSR) (CIS)
Launch site: TYURATAM MISSILE AND SPACE COMPLEX (TTMTR)
aabbcc
Your satellite tracking list
Your tracking list is empty




NASA's NSSDC Master Catalog

Two Line Element Set (TLE):
1 09503U 76107A   21260.78069181 -.00000315  00000-0  00000-0 0  9999
2 09503   7.9635 294.5481 0067732 138.5643 302.2828  1.00267911181133
Source of the keplerian elements: AFSPC